Date String (YYYY-MM-DD hh:mm:ss) UTC,Instrument flags,absolute air pressure of the measurement (hPa),sample flow rate (lpm),inlet stack bypass flow (lpm),air temperature of the measurement (°C),ambient temperature measured by the external sensor (°C),aerosol sample conditioner tube jacket temperature (°C),OPC LED temperature (°C),internal box temperature (°C),relative humidity of the measurement (%),span deviation,mass concentration of particles derived from Lorenz-Mie calculation of OPC scattering (μg/m³),mass concentration of particles derived from Lorenz-Mie calculation of OPC scattering (μg/m³),mass concentration of particles derived from Lorenz-Mie calculation of OPC scattering (μg/m³)
DateTimeUTC,F1_M11,P_M11,Q1_M11,Q2_M11,T1_M11,T2_M11,T3_M11,T4_M11,T5_M11,U1_M11,ZSPAN_M11,X2_M11,X0_M11,X1_M11
2024-02-22 13:00:00,SystemResetWarning,0829.1,5.00,000.00,020.2,019.7,000.0,028.7,022.0,24.3,0000.0,0003.10,0005.81,0002.60
2024-02-22 13:01:00,SystemResetWarning,0829.1,5.00,000.00,020.2,019.7,000.0,028.7,022.0,24.3,0000.0,0003.11,0005.75,0002.64
2024-02-22 13:02:00,SystemResetWarning,0829.0,4.99,000.00,020.2,019.6,000.0,028.7,022.0,24.3,0000.0,0003.11,0005.69,0002.69
2024-02-22 13:03:00,SystemResetWarning,0829.1,5.00,000.00,020.2,019.6,000.0,028.7,022.0,24.3,0000.0,0003.15,0005.78,0002.74
2024-02-22 13:04:00,SystemResetWarning,0829.1,5.00,000.00,020.2,019.6,000.0,028.7,022.0,24.3,0000.0,0003.18,0005.84,0002.78
2024-02-22 13:05:00,SystemResetWarning,0829.1,5.00,000.00,020.2,019.6,000.0,028.7,022.0,24.4,0000.0,0003.19,0005.76,0002.81
2024-02-22 13:06:00,SystemResetWarning,0829.1,5.00,000.00,020.2,019.6,000.0,028.7,022.0,24.4,0000.0,0003.19,0006.08,0002.83
2024-02-22 13:07:00,SystemResetWarning,0829.1,5.00,000.00,020.2,019.6,000.0,028.7,022.0,24.4,0000.0,0003.20,0007.31,0002.85
2024-02-22 13:08:00,SystemResetWarning,0829.1,5.00,000.00,020.2,019.6,000.0,028.7,022.0,24.4,0000.0,0003.22,0007.54,0002.89
2024-02-22 13:09:00,SystemResetWarning,0829.1,5.00,000.00,020.2,019.6,000.0,028.7,022.1,24.4,0000.0,0003.22,0007.43,0002.93
2024-02-22 13:10:00,SystemResetWarning,0829.2,5.00,000.00,020.2,019.6,000.0,028.7,022.1,24.4,0000.0,0003.25,0007.47,0002.98
2024-02-22 13:11:00,SystemResetWarning,0829.2,5.01,000.00,020.2,019.6,000.0,028.7,022.1,24.4,0000.0,0003.26,0007.59,0003.02
2024-02-22 13:12:00,SystemResetWarning,0829.2,5.00,000.00,020.2,019.6,000.0,028.7,022.0,24.4,0000.0,0003.31,0007.97,0003.08
2024-02-22 13:13:00,SystemResetWarning,0829.2,5.01,000.00,020.2,019.6,000.0,028.7,022.0,24.4,0000.0,0003.35,0008.09,0003.11
2024-02-22 13:14:00,SystemResetWarning,0829.2,5.00,000.00,020.2,019.6,000.0,028.7,022.0,24.4,0000.0,0003.38,0008.16,0003.12
2024-02-22 13:15:00,SystemResetWarning,0829.2,4.99,000.00,020.2,019.6,000.0,028.7,022.0,24.4,0000.0,0003.40,0008.22,0003.13
2024-02-22 13:16:00,SystemResetWarning,0829.2,4.99,000.00,020.2,019.6,000.0,028.7,022.1,24.4,0000.0,0003.43,0008.29,0003.15
2024-02-22 13:17:00,SystemResetWarning,0829.2,5.00,000.00,020.2,019.6,000.0,028.7,022.1,24.4,0000.0,0003.43,0008.43,0003.17
2024-02-22 13:18:00,SystemResetWarning,0829.2,5.01,000.00,020.2,019.6,000.0,028.7,022.1,24.4,0000.0,0003.44,0007.92,0003.17
2024-02-22 13:19:00,SystemResetWarning,0829.2,5.00,000.00,020.2,019.7,000.0,028.7,022.1,24.5,0000.0,0003.45,0007.86,0003.17
2024-02-22 13:20:00,SystemResetWarning,0829.2,5.00,000.00,020.2,019.7,000.0,028.7,022.1,24.5,0000.0,0003.44,0007.28,0003.17
2024-02-22 13:21:00,SystemResetWarning,0829.3,5.00,000.00,020.2,019.7,000.0,028.7,022.1,24.5,0000.0,0003.42,0007.26,0003.16
2024-02-22 13:22:00,SystemResetWarning,0829.3,5.00,000.00,020.2,019.7,000.0,028.7,022.1,24.5,0000.0,0003.40,0007.17,0003.14
2024-02-22 13:23:00,SystemResetWarning,0829.3,5.00,000.00,020.2,019.7,000.0,028.7,022.1,24.5,0000.0,0003.39,0006.72,0003.12
2024-02-22 13:24:00,SystemResetWarning,0829.2,4.99,000.00,020.2,019.7,000.0,028.7,022.1,24.5,0000.0,0003.35,0006.67,0003.11
2024-02-22 13:25:00,SystemResetWarning,0829.2,5.00,000.00,020.2,019.7,000.0,028.7,022.1,24.5,0000.0,0003.36,0006.67,0003.11
2024-02-22 13:26:00,SystemResetWarning,0829.3,4.99,000.00,020.2,019.7,000.0,028.7,022.1,24.5,0000.0,0003.34,0006.55,0003.12
2024-02-22 13:27:00,SystemResetWarning,0829.2,5.00,000.00,020.2,019.7,000.0,028.7,022.1,24.5,0000.0,0003.35,0006.54,0003.12
2024-02-22 13:28:00,SystemResetWarning,0829.3,5.00,000.00,020.2,019.7,000.0,028.7,022.1,24.4,0000.0,0003.38,0006.24,0003.14
2024-02-22 13:29:00,SystemResetWarning,0829.3,5.01,000.00,020.2,019.7,000.0,028.7,022.1,24.4,0000.0,0003.41,0005.73,0003.18
2024-02-22 13:30:00,SystemResetWarning,0829.3,5.02,000.00,020.2,019.7,000.0,028.7,022.1,24.4,0000.0,0003.42,0005.71,0003.21
2024-02-22 13:31:00,SystemResetWarning,0829.4,5.00,000.00,020.2,019.7,000.0,028.7,022.1,24.4,0000.0,0003.44,0005.42,0003.24
2024-02-22 13:32:00,SystemResetWarning,0829.4,5.00,000.00,020.3,019.7,000.0,028.7,022.1,24.4,0000.0,0003.46,0005.64,0003.27
2024-02-22 13:33:00,SystemResetWarning,0829.4,4.99,000.00,020.3,019.7,000.0,028.7,022.1,24.4,0000.0,0003.51,0005.81,0003.32
2024-02-22 13:34:00,SystemResetWarning,0829.4,4.99,000.00,020.3,019.7,000.0,028.7,022.1,24.4,0000.0,0003.54,0005.58,0003.37
2024-02-22 13:35:00,SystemResetWarning,0829.4,5.01,000.00,020.3,019.7,000.0,028.7,022.1,24.3,0000.0,0003.58,0005.44,0003.42
2024-02-22 13:36:00,SystemResetWarning,0829.3,5.01,000.00,020.3,019.7,000.0,028.7,022.1,24.3,0000.0,0003.60,0005.48,0003.45
2024-02-22 13:37:00,SystemResetWarning,0829.3,5.00,000.00,020.3,019.7,000.0,028.7,022.1,24.3,0000.0,0003.64,0005.68,0003.46
2024-02-22 13:38:00,SystemResetWarning,0829.3,5.00,000.00,020.3,019.7,000.0,028.7,022.1,24.3,0000.0,0003.63,0005.65,0003.46
2024-02-22 13:39:00,SystemResetWarning,0829.3,4.99,000.00,020.3,019.7,000.0,028.7,022.1,24.3,0000.0,0003.62,0005.67,0003.45
2024-02-22 13:40:00,SystemResetWarning,0829.3,5.00,000.00,020.3,019.7,000.0,028.7,022.1,24.3,0000.0,0003.61,0006.48,0003.44
2024-02-22 13:41:00,SystemResetWarning,0829.4,5.00,000.00,020.3,019.7,000.0,028.7,022.1,24.4,0000.0,0003.61,0007.05,0003.44
2024-02-22 13:42:00,SystemResetWarning,0829.4,5.00,000.00,020.3,019.8,000.0,028.7,022.1,24.4,0000.0,0003.63,0007.12,0003.46
2024-02-22 13:43:00,SystemResetWarning,0829.4,5.00,000.00,020.3,019.8,000.0,028.7,022.1,24.4,0000.0,0003.64,0007.25,0003.45
2024-02-22 13:44:00,SystemResetWarning,0829.4,5.00,000.00,020.3,019.8,000.0,028.7,022.1,24.4,0000.0,0003.64,0007.81,0003.44
2024-02-22 13:45:00,SystemResetWarning,0829.5,5.02,000.00,020.3,019.8,000.0,028.7,022.2,24.4,0000.0,0003.63,0008.01,0003.42
2024-02-22 13:46:00,SystemResetWarning,0829.5,5.00,000.00,020.3,019.8,000.0,028.7,022.1,24.4,0000.0,0003.64,0008.85,0003.40
2024-02-22 13:47:00,SystemResetWarning,0829.6,4.99,000.00,020.3,019.8,000.0,028.7,022.1,24.4,0000.0,0003.65,0008.88,0003.40
2024-02-22 13:48:00,SystemResetWarning,0829.5,4.99,000.00,020.3,019.8,000.0,028.7,022.1,24.4,0000.0,0003.63,0008.76,0003.41
2024-02-22 13:49:00,SystemResetWarning,0829.6,5.00,000.00,020.3,019.8,000.0,028.7,022.1,24.4,0000.0,0003.67,0008.84,0003.44
2024-02-22 13:50:00,SystemResetWarning,0829.6,5.00,000.00,020.3,019.8,000.0,028.7,022.1,24.4,0000.0,0003.68,0008.83,0003.46
2024-02-22 13:51:00,SystemResetWarning,0829.6,5.00,000.00,020.3,019.8,000.0,028.7,022.1,24.5,0000.0,0003.67,0008.40,0003.48
2024-02-22 13:52:00,SystemResetWarning,0829.6,5.02,000.00,020.3,019.8,000.0,028.7,022.1,24.8,0000.0,0003.70,0009.05,0003.49
2024-02-22 13:53:00,SystemResetWarning,0829.6,5.01,000.00,020.3,019.8,000.0,028.7,022.1,25.7,0000.0,0003.72,0009.80,0003.49
2024-02-22 13:54:00,SystemResetWarning,0829.7,5.00,000.00,020.3,019.8,000.0,028.7,022.1,25.0,0000.0,0003.77,0010.06,0003.51
2024-02-22 13:55:00,SystemResetWarning,0829.7,5.00,000.00,020.3,019.8,000.0,028.7,022.2,24.6,0000.0,0003.78,0009.43,0003.53
2024-02-22 13:56:00,SystemResetWarning,0829.6,5.00,000.00,020.3,019.8,000.0,028.7,022.1,24.6,0000.0,0003.79,0009.52,0003.55
2024-02-22 13:57:00,SystemResetWarning,0829.7,5.00,000.00,020.3,019.8,000.0,028.7,022.2,24.5,0000.0,0003.80,0008.75,0003.57
2024-02-22 13:58:00,SystemResetWarning,0829.7,5.00,000.00,020.3,019.8,000.0,028.7,022.1,24.5,0000.0,0003.79,0008.87,0003.58
2024-02-22 13:59:00,SystemResetWarning,0829.7,5.01,000.00,020.3,019.8,000.0,028.7,022.2,24.4,0000.0,0003.82,0009.15,0003.60
